Find Starlink 5109

NORAD ID: 54002 Int'l Des: 2022-125 Owner: SPXS Country: US Constellation: starlink operational
LEOCIRCULAR

Live Position

Loading 3D Globe...

About Starlink 5109

Description loading...

Upcoming Passes

Passes for default location (London). Set your location on the main map for personalized predictions.

Altitude History

Loading altitude history...

Two-Line Element Set

1 54002U 22125AQ 26107.15367984 -.00000052 00000-0 14834-4 0 9994
2 54002 53.2190 31.1840 0001638 89.5532 270.5648 15.08835372195414
Epoch: Apr 17, 2026 • Age: 11 hours

Current Status

Altitude 542.8 km
Velocity 7.60 km/s
Sub-Earth Point 41.92°N, 0.79°W
Launch Date Oct 5, 2022
Age 3.5 years
Type internet

Technical Details

Classification Payload
Mass 305.00 kg
Dry Mass 290.00 kg
Total Mass 305.00 kg
Length 0.20 m
Diameter 2.80 m
Span 9.00 m
Shape Box + pan
Manufacturer SPXS
Bus Type Starlink
Phase Status In Orbit
Owner/State SPXS/US

Most Searched